This is the latest recevied weather packets stored in our database for station/object KA9CBS. If no packets are shown the sender has not sent any weather packets the latest 10 day(s).
| Time | Temp. | Humidity | Pressure | Rain* | Wind** | Luminosity | Snow |
|---|---|---|---|---|---|---|---|
| 1787588019 | 25° C | 57% | 1021 hPa | 0 mm | - | 613 W/m² | - |
| 1787587715 | 26.11° C | 60% | 1021.1 hPa | 0 mm | - | 590 W/m² | - |
| 1787587410 | 25.56° C | 60% | 1021 hPa | 0 mm | - | 594 W/m² | - |
| 1787587109 | 25° C | 64% | 1020.9 hPa | 0 mm | - | 523 W/m² | - |
| 1787586804 | 25° C | 64% | 1020.8 hPa | 0 mm | - | 542 W/m² | - |
| 1787586499 | 25° C | 64% | 1020.7 hPa | 0 mm | - | 505 W/m² | - |
| 1787586194 | 25° C | 66% | 1020.7 hPa | 0 mm | - | 519 W/m² | - |
| 1787585891 | 25° C | 65% | 1020.8 hPa | 0 mm | - | 468 W/m² | - |
| 1787585590 | 25° C | 65% | 1020.7 hPa | 0 mm | - | 510 W/m² | - |
| 1787585286 | 24.44° C | 66% | 1020.5 hPa | 0 mm | - | 452 W/m² | - |
| 1787584985 | 24.44° C | 67% | 1020.6 hPa | 0 mm | - | 425 W/m² | - |
| 1787584675 | 23.89° C | 68% | 1020.6 hPa | 0 mm | - | 471 W/m² | - |
| 1787584373 | 23.89° C | 67% | 1020.4 hPa | 0 mm | - | 494 W/m² | - |
| 1787584073 | 23.89° C | 65% | 1020.4 hPa | 0 mm | - | 483 W/m² | - |
| 1787583767 | 23.89° C | 68% | 1020.1 hPa | 0 mm | - | 427 W/m² | - |
| 1787583462 | 23.89° C | 67% | 1020.4 hPa | 0 mm | - | 468 W/m² | - |
| 1787583161 | 23.33° C | 69% | 1020.1 hPa | 0 mm | - | 491 W/m² | - |
| 1787582856 | 22.78° C | 69% | 1020.1 hPa | 0 mm | - | 478 W/m² | - |
| 1787582552 | 22.78° C | 69% | 1020.2 hPa | 0 mm | - | 503 W/m² | - |
| 1787582252 | 22.22° C | 72% | 1019.9 hPa | 0 mm | - | 498 W/m² | - |
| 1787581951 | 22.22° C | 72% | 1019.8 hPa | 0 mm | - | 434 W/m² | - |
| 1787581647 | 22.22° C | 74% | 1019.8 hPa | 0 mm | - | 380 W/m² | - |
| 1787581342 | 22.22° C | 75% | 1020.2 hPa | 0 mm | - | 360 W/m² | - |
| 1787581036 | 21.67° C | 74% | 1020.1 hPa | 0 mm | - | 339 W/m² | - |
| 1787580733 | 21.67° C | 78% | 1020.1 hPa | 0 mm | - | 288 W/m² | - |
* Rain latest hour (hover to see other rain measurements)
** Current wind speed in m/s (hover to see current wind gust speed)